Location: Newark
(48.5667°N, 7.8167°E)
Time: 05:15:25
(UTC+00:00)

JY1SAT - Pass Details

Date: 26 July 2021
Orbit: 568 x 591 km, 97.7° (Epoch: 19 September)

Event Time Altitude Azimuth Distance (km) Brightness Sun altitude
Exits shadow 20:58:19 21° 161° (SSE) 1,337 ? -13.7°
Maximum altitude 21:01:03 82° 75° (ENE) 600 ? -14.0°
Drops below altitude 10° 21:05:14 10° 349° (NNW) 1,929 ? -14.4°
Sets 21:07:25 0° 348° (NNW) 2,836 ? -14.6°
